Location: Izdebno
(52.6670°N, 16.2170°E)
Time: 03:17:31
(UTC+02:00)

Transit 2A - Pass Details

Date: 24 February 2024
Orbit: 596 x 956 km, 66.7° (Epoch: 21 April)

Event Time Altitude Azimuth Distance (km) Brightness Sun altitude
Rises 04:54:42 0° 316° (NW) 2,981 - -18.8°
Reaches altitude 10° 04:57:01 10° 308° (NW) 2,110 - -18.5°
Exits shadow 05:00:23 34° 270° (W) 1,154 6.4 -18.0°
Maximum altitude 05:01:26 38° 241° (WSW) 1,082 6.3 -17.8°
Drops below altitude 10° 05:06:15 10° 174° (S) 2,305 8.5 -17.1°
Sets 05:08:53 0° 167° (SSE) 3,292 9.4 -16.7°
